Delaware, OH

1:44 AM EDT on June 24, 2017 (GMT -0400)
Delaware Municipal

Weather History for KDLZ - December, 2013

Change the Weather History Date:

Saturday, December 28, 2013

  Actual Average Record
Temperature  
Mean Temperature 40 °F -  
Max Temperature 48 °F 35 °F 61 °F (1959)
Min Temperature 32 °F 19 °F -11 °F (1950)
Degree Days  
Heating Degree Days 25    
Moisture  
Dew Point 30 °F    
Average Humidity 72    
Maximum Humidity 87    
Minimum Humidity 54    
Precipitation  
Precipitation 0.00 in - - ()
Sea Level Pressure  
Sea Level Pressure 30.15 in    
Wind  
Wind Speed 8 mph (SSW)    
Max Wind Speed 17 mph    
Max Gust Speed 23 mph    
Visibility 10 miles    
Events      
Averages and records for this station are not official NWS values.
T = Trace of Precipitation, MM = Missing Value Source: NWS Daily Summary

Daily Weather History Graph

Daily Weather History Graph

Search for Another Location

Airport or City:

Trip Planner

Search our weather history database for the weather conditions in past years. The results will help you decide how hot, cold, wet, or windy it might be!

Date:

Astronomy

Dec. 28, 2013 Rise Set
Actual Time 7:54 AM EST 5:14 PM EST
Civil Twilight 7:23 AM EST 5:44 PM EST
Nautical Twilight 6:49 AM EST 6:18 PM EST
Astronomical Twilight 6:16 AM EST 6:51 PM EST
Moon 3:29 AM EST (12/28) 2:04 PM EST (12/28)
Length of Visible Light 10h 20m
Length of Day
9h 19m
Waning Crescent, 19% of the Moon is Illuminated
Dec 28
Waning Crescent
Jan 1
New
Jan 7
First Quarter
Jan 15
Full
Jan 24
Last Quarter

Hourly Weather History & Observations

Time (EST) Temp. Windchill Dew Point Humidity Pressure Visibility Wind Dir Wind Speed Gust Speed Precip Events Conditions
12:19 AM 33.8 °F 26.4 °F 28.4 °F 81% 30.23 in 10.0 mi SSW 9.2 mph - N/A   Clear
12:39 AM 33.8 °F 27.7 °F 26.6 °F 75% 30.23 in 10.0 mi SW 6.9 mph - N/A   Clear
12:59 AM 33.8 °F 27.0 °F 26.6 °F 75% 30.22 in 10.0 mi SSW 8.1 mph - N/A   Clear
1:19 AM 32.0 °F 24.8 °F 26.6 °F 80% 30.21 in 10.0 mi SSW 8.1 mph - N/A   Clear
1:39 AM 33.8 °F 27.0 °F 28.4 °F 81% 30.20 in 10.0 mi SSW 8.1 mph - N/A   Clear
1:59 AM 33.8 °F 27.7 °F 26.6 °F 75% 30.20 in 10.0 mi SSW 6.9 mph - N/A   Clear
2:19 AM 32.0 °F 24.8 °F 26.6 °F 80% 30.20 in 10.0 mi SSW 8.1 mph - N/A   Clear
2:39 AM 32.0 °F 24.2 °F 26.6 °F 80% 30.20 in 10.0 mi South 9.2 mph - N/A   Clear
2:59 AM 32.0 °F 24.8 °F 26.6 °F 80% 30.20 in 10.0 mi South 8.1 mph - N/A   Clear
3:19 AM 32.0 °F 25.6 °F 26.6 °F 80% 30.20 in 10.0 mi South 6.9 mph - N/A   Clear
3:39 AM 32.0 °F 24.8 °F 26.6 °F 80% 30.20 in 10.0 mi SSW 8.1 mph - N/A   Clear
3:59 AM 32.0 °F 24.8 °F 26.6 °F 80% 30.20 in 10.0 mi SSW 8.1 mph - N/A   Clear
4:19 AM 32.0 °F 25.6 °F 26.6 °F 80% 30.19 in 10.0 mi South 6.9 mph - N/A   Clear
4:39 AM 32.0 °F 24.2 °F 26.6 °F 80% 30.19 in 10.0 mi SSW 9.2 mph - N/A   Clear
4:59 AM 32.0 °F 24.2 °F 26.6 °F 80% 30.19 in 10.0 mi SSW 9.2 mph - N/A   Clear
5:19 AM 32.0 °F 24.8 °F 26.6 °F 80% 30.18 in 10.0 mi South 8.1 mph - N/A   Clear
5:39 AM 32.0 °F 24.8 °F 26.6 °F 80% 30.19 in 10.0 mi SSW 8.1 mph - N/A   Clear
5:59 AM 32.0 °F 24.2 °F 28.4 °F 87% 30.19 in 10.0 mi SSW 9.2 mph - N/A   Clear
6:19 AM 32.0 °F 25.6 °F 28.4 °F 87% 30.20 in 10.0 mi SSW 6.9 mph - N/A   Clear
6:39 AM 33.8 °F 28.6 °F 28.4 °F 81% 30.21 in 10.0 mi SW 5.8 mph - N/A   Clear
7:00 AM 32.0 °F 27.5 °F 28.4 °F 87% 30.21 in 10.0 mi SSW 4.6 mph - N/A   Clear
7:19 AM 32.0 °F 26.4 °F 28.4 °F 87% 30.21 in 10.0 mi South 5.8 mph - N/A   Clear
7:39 AM 32.0 °F 26.4 °F 26.6 °F 80% 30.21 in 10.0 mi South 5.8 mph - N/A   Clear
8:00 AM 32.0 °F 25.6 °F 28.4 °F 87% 30.21 in 10.0 mi South 6.9 mph - N/A   Clear
8:19 AM 32.0 °F 24.8 °F 28.4 °F 87% 30.21 in 10.0 mi South 8.1 mph - N/A   Clear
8:39 AM 32.0 °F 27.5 °F 28.4 °F 87% 30.21 in 10.0 mi South 4.6 mph - N/A   Clear
9:00 AM 33.8 °F 29.6 °F 28.4 °F 81% 30.22 in 10.0 mi South 4.6 mph - N/A   Clear
9:19 AM 35.6 °F 31.7 °F 28.4 °F 75% 30.23 in 10.0 mi South 4.6 mph - N/A   Clear
9:39 AM 35.6 °F 30.7 °F 30.2 °F 81% 30.23 in 10.0 mi South 5.8 mph - N/A   Clear
10:00 AM 35.6 °F 28.6 °F 30.2 °F 81% 30.23 in 10.0 mi South 9.2 mph - N/A   Clear
10:19 AM 37.4 °F 30.8 °F 30.2 °F 75% 30.22 in 10.0 mi SSW 9.2 mph - N/A   Clear
10:39 AM 39.2 °F 32.5 °F 30.2 °F 70% 30.22 in 10.0 mi SSW 10.4 mph - N/A   Clear
10:59 AM 41.0 °F 34.3 °F 30.2 °F 65% 30.21 in 10.0 mi SSW 11.5 mph - N/A   Clear
11:19 AM 41.0 °F 34.3 °F 32.0 °F 70% 30.21 in 10.0 mi SSW 11.5 mph 16.1 mph N/A   Clear
11:39 AM 42.8 °F 36.6 °F 32.0 °F 66% 30.20 in 10.0 mi SSW 11.5 mph - N/A   Clear
11:59 AM 42.8 °F 37.0 °F 32.0 °F 66% 30.18 in 10.0 mi SSW 10.4 mph - N/A   Clear
12:19 PM 44.6 °F 38.8 °F 32.0 °F 61% 30.17 in 10.0 mi SSW 11.5 mph - N/A   Clear
12:39 PM 44.6 °F 39.2 °F 32.0 °F 61% 30.17 in 10.0 mi SSW 10.4 mph - N/A   Clear
12:59 PM 46.4 °F 41.1 °F 32.0 °F 57% 30.15 in 10.0 mi SSW 11.5 mph - N/A   Clear
1:19 PM 44.6 °F 39.2 °F 32.0 °F 61% 30.14 in 10.0 mi South 10.4 mph - N/A   Clear
1:39 PM 44.6 °F 39.2 °F 32.0 °F 61% 30.13 in 10.0 mi SSW 10.4 mph 17.3 mph N/A   Clear
1:59 PM 46.4 °F 41.1 °F 32.0 °F 57% 30.13 in 10.0 mi SSW 11.5 mph - N/A   Clear
2:19 PM 46.4 °F 40.7 °F 32.0 °F 57% 30.13 in 10.0 mi SSW 12.7 mph - N/A   Clear
2:39 PM 46.4 °F 39.5 °F 32.0 °F 57% 30.13 in 10.0 mi SSW 17.3 mph 23.0 mph N/A   Clear
2:59 PM 46.4 °F 40.1 °F 32.0 °F 57% 30.12 in 10.0 mi SSW 15.0 mph - N/A   Clear
3:19 PM 48.2 °F - 32.0 °F 54% 30.13 in 10.0 mi SSW 12.7 mph 18.4 mph N/A   Clear
3:40 PM 46.4 °F 41.1 °F 32.0 °F 57% 30.13 in 10.0 mi SSW 11.5 mph - N/A   Clear
3:59 PM 46.4 °F 42.4 °F 32.0 °F 57% 30.12 in 10.0 mi SSW 8.1 mph - N/A   Clear
4:19 PM 46.4 °F 42.9 °F 32.0 °F 57% 30.12 in 10.0 mi South 6.9 mph - N/A   Clear
4:40 PM 44.6 °F 39.7 °F 32.0 °F 61% 30.12 in 10.0 mi South 9.2 mph - N/A   Clear
4:59 PM 44.6 °F 40.2 °F 32.0 °F 61% 30.11 in 10.0 mi South 8.1 mph - N/A   Clear
5:19 PM 44.6 °F 40.2 °F 32.0 °F 61% 30.11 in 10.0 mi South 8.1 mph - N/A   Clear
5:40 PM 42.8 °F 37.5 °F 32.0 °F 66% 30.11 in 10.0 mi South 9.2 mph - N/A   Clear
5:59 PM 42.8 °F 37.5 °F 32.0 °F 66% 30.12 in 10.0 mi South 9.2 mph - N/A   Clear
6:19 PM 42.8 °F 37.5 °F 32.0 °F 66% 30.12 in 10.0 mi South 9.2 mph - N/A   Clear
6:39 PM 41.0 °F 35.2 °F 32.0 °F 70% 30.11 in 10.0 mi South 9.2 mph - N/A   Clear
6:59 PM 41.0 °F 35.8 °F 32.0 °F 70% 30.12 in 10.0 mi South 8.1 mph - N/A   Clear
7:19 PM 41.0 °F 35.8 °F 30.2 °F 65% 30.11 in 10.0 mi South 8.1 mph - N/A   Clear
7:39 PM 41.0 °F 36.4 °F 30.2 °F 65% 30.11 in 10.0 mi South 6.9 mph - N/A   Clear
7:59 PM 41.0 °F 35.8 °F 30.2 °F 65% 30.11 in 10.0 mi South 8.1 mph - N/A   Clear
8:19 PM 41.0 °F 36.4 °F 30.2 °F 65% 30.11 in 10.0 mi South 6.9 mph - N/A   Clear
8:39 PM 39.2 °F 33.6 °F 30.2 °F 70% 30.09 in 10.0 mi South 8.1 mph - N/A   Clear
8:59 PM 37.4 °F 32.1 °F 30.2 °F 75% 30.08 in 10.0 mi South 6.9 mph - N/A   Clear
9:19 PM 39.2 °F 33.6 °F 30.2 °F 70% 30.07 in 10.0 mi South 8.1 mph - N/A   Clear
9:39 PM 39.2 °F 33.6 °F 30.2 °F 70% 30.06 in 10.0 mi South 8.1 mph - N/A   Clear
9:59 PM 39.2 °F 33.6 °F 28.4 °F 65% 30.05 in 10.0 mi South 8.1 mph - N/A   Clear
10:19 PM 37.4 °F 32.1 °F 28.4 °F 70% 30.03 in 10.0 mi South 6.9 mph - N/A   Clear
10:39 PM 37.4 °F 32.1 °F 28.4 °F 70% 30.03 in 10.0 mi South 6.9 mph - N/A   Clear
10:59 PM 37.4 °F 30.8 °F 28.4 °F 70% 30.02 in 10.0 mi South 9.2 mph - N/A   Clear
11:19 PM 37.4 °F 32.1 °F 28.4 °F 70% 30.02 in 10.0 mi South 6.9 mph - N/A   Clear
11:39 PM 37.4 °F 30.8 °F 28.4 °F 70% 30.02 in 10.0 mi South 9.2 mph - N/A   Clear
11:59 PM 37.4 °F 32.1 °F 28.4 °F 70% 30.02 in 10.0 mi South 6.9 mph - N/A   Clear